contact:dominique.lefevre@mio.osupytheas.fr, maurice.libes@osupytheas.fr, didier.mallarino@osupytheas.fr
Project:EMSO http://www.emso-fr.org/EMSO-France
Depth: 2436.0 m
Title:EMSO Ligure Ouest : Data MII capteur OXYGEN
DateTime,Latitude,Longitude,Optode-Type,Optode_Serial,Oxygen,Saturation_Oxygen,Temperature
DateTime,Latitude,Longitude,Optode-Type,Optode_Serial,µmol.l-1,%,degC
2017-10-15T00:01:51,42.805,6.029,4330,1995,199.996,61.159,13.286
2017-10-15T00:04:51,42.805,6.029,4330,1995,199.938,61.141,13.286
2017-10-15T00:07:51,42.805,6.029,4330,1995,199.950,61.145,13.286
2017-10-15T00:10:51,42.805,6.029,4330,1995,200.016,61.165,13.286
2017-10-15T00:13:51,42.805,6.029,4330,1995,200.026,61.168,13.286
2017-10-15T00:16:51,42.805,6.029,4330,1995,199.957,61.147,13.286
2017-10-15T00:19:51,42.805,6.029,4330,1995,199.937,61.141,13.286
2017-10-15T00:22:51,42.805,6.029,4330,1995,199.930,61.139,13.286
2017-10-15T00:25:51,42.805,6.029,4330,1995,199.926,61.137,13.286
2017-10-15T00:28:51,42.805,6.029,4330,1995,200.028,61.168,13.286
2017-10-15T00:31:51,42.805,6.029,4330,1995,200.039,61.172,13.286
2017-10-15T00:34:51,42.805,6.029,4330,1995,200.023,61.167,13.286
2017-10-15T00:37:51,42.805,6.029,4330,1995,200.071,61.182,13.286
2017-10-15T00:40:51,42.805,6.029,4330,1995,200.007,61.162,13.286
2017-10-15T00:43:51,42.805,6.029,4330,1995,200.014,61.164,13.286
2017-10-15T00:46:51,42.805,6.029,4330,1995,199.989,61.157,13.286
2017-10-15T00:49:51,42.805,6.029,4330,1995,199.965,61.149,13.286
2017-10-15T00:52:51,42.805,6.029,4330,1995,199.907,61.132,13.286
2017-10-15T00:55:51,42.805,6.029,4330,1995,199.923,61.137,13.286
2017-10-15T00:58:51,42.805,6.029,4330,1995,199.971,61.151,13.286
2017-10-15T01:01:51,42.805,6.029,4330,1995,199.869,61.120,13.286
2017-10-15T01:04:51,42.805,6.029,4330,1995,199.877,61.123,13.286
2017-10-15T01:07:51,42.805,6.029,4330,1995,199.832,61.109,13.286
2017-10-15T01:10:51,42.805,6.029,4330,1995,199.845,61.113,13.286
2017-10-15T01:13:51,42.805,6.029,4330,1995,199.840,61.111,13.286
2017-10-15T01:16:51,42.805,6.029,4330,1995,199.773,61.091,13.286
2017-10-15T01:19:51,42.805,6.029,4330,1995,199.844,61.113,13.286
2017-10-15T01:22:51,42.805,6.029,4330,1995,199.761,61.087,13.286
2017-10-15T01:25:51,42.805,6.029,4330,1995,199.780,61.093,13.286
2017-10-15T01:28:51,42.805,6.029,4330,1995,199.783,61.094,13.286
2017-10-15T01:31:51,42.805,6.029,4330,1995,199.761,61.087,13.286
2017-10-15T01:34:51,42.805,6.029,4330,1995,199.771,61.090,13.286
2017-10-15T01:37:51,42.805,6.029,4330,1995,199.769,61.090,13.286
2017-10-15T01:40:51,42.805,6.029,4330,1995,199.743,61.081,13.286
2017-10-15T01:43:51,42.805,6.029,4330,1995,199.685,61.064,13.286
2017-10-15T01:46:51,42.805,6.029,4330,1995,199.678,61.062,13.286
2017-10-15T01:49:51,42.805,6.029,4330,1995,199.619,61.044,13.286
2017-10-15T01:52:51,42.805,6.029,4330,1995,199.606,61.040,13.287
2017-10-15T01:55:51,42.805,6.029,4330,1995,199.635,61.049,13.286
2017-10-15T01:58:51,42.805,6.029,4330,1995,199.625,61.046,13.286
2017-10-15T02:01:51,42.805,6.029,4330,1995,199.605,61.040,13.287
2017-10-15T02:04:51,42.805,6.029,4330,1995,199.561,61.027,13.287
2017-10-15T02:07:51,42.805,6.029,4330,1995,199.563,61.027,13.286
2017-10-15T02:10:51,42.805,6.029,4330,1995,199.611,61.042,13.286
2017-10-15T02:13:51,42.805,6.029,4330,1995,199.558,61.025,13.286
2017-10-15T02:16:51,42.805,6.029,4330,1995,199.541,61.020,13.286
2017-10-15T02:19:51,42.805,6.029,4330,1995,199.475,61.000,13.286
2017-10-15T02:22:51,42.805,6.029,4330,1995,199.587,61.034,13.286
2017-10-15T02:25:51,42.805,6.029,4330,1995,199.547,61.022,13.286
2017-10-15T02:28:51,42.805,6.029,4330,1995,199.553,61.024,13.286
2017-10-15T02:31:51,42.805,6.029,4330,1995,199.486,61.004,13.287
2017-10-15T02:34:51,42.805,6.029,4330,1995,199.386,60.972,13.286
2017-10-15T02:37:51,42.805,6.029,4330,1995,199.401,60.978,13.287
2017-10-15T02:40:51,42.805,6.029,4330,1995,199.437,60.988,13.287
2017-10-15T02:43:51,42.805,6.029,4330,1995,199.298,60.949,13.288
2017-10-15T02:46:51,42.805,6.029,4330,1995,199.448,60.992,13.286
2017-10-15T02:49:51,42.805,6.029,4330,1995,199.495,61.006,13.286
2017-10-15T02:52:51,42.805,6.029,4330,1995,199.410,60.980,13.287
2017-10-15T02:55:51,42.805,6.029,4330,1995,199.381,60.972,13.287
2017-10-15T02:58:51,42.805,6.029,4330,1995,199.398,60.976,13.286
2017-10-15T03:01:51,42.805,6.029,4330,1995,199.347,60.961,13.286
2017-10-15T03:04:51,42.805,6.029,4330,1995,199.358,60.964,13.286
2017-10-15T03:07:51,42.805,6.029,4330,1995,199.340,60.959,13.287
2017-10-15T03:10:51,42.805,6.029,4330,1995,199.401,60.977,13.286
2017-10-15T03:13:51,42.805,6.029,4330,1995,199.383,60.972,13.286
2017-10-15T03:16:51,42.805,6.029,4330,1995,199.387,60.973,13.286
2017-10-15T03:19:51,42.805,6.029,4330,1995,199.392,60.975,13.286
2017-10-15T03:22:51,42.805,6.029,4330,1995,199.384,60.972,13.286
2017-10-15T03:25:51,42.805,6.029,4330,1995,199.358,60.964,13.286
2017-10-15T03:28:51,42.805,6.029,4330,1995,199.423,60.984,13.286
2017-10-15T03:31:51,42.805,6.029,4330,1995,199.482,61.002,13.286
2017-10-15T03:34:51,42.805,6.029,4330,1995,199.403,60.978,13.286
2017-10-15T03:37:51,42.805,6.029,4330,1995,199.383,60.972,13.286
2017-10-15T03:40:51,42.805,6.029,4330,1995,199.339,60.959,13.287
2017-10-15T03:43:51,42.805,6.029,4330,1995,199.308,60.949,13.286
2017-10-15T03:46:51,42.805,6.029,4330,1995,199.225,60.924,13.287
2017-10-15T03:49:51,42.805,6.029,4330,1995,199.210,60.919,13.286
2017-10-15T03:52:51,42.805,6.029,4330,1995,199.245,60.930,13.287
2017-10-15T03:55:51,42.805,6.029,4330,1995,199.169,60.907,13.286
2017-10-15T03:58:51,42.805,6.029,4330,1995,199.286,60.942,13.286
2017-10-15T04:01:51,42.805,6.029,4330,1995,199.259,60.934,13.286
2017-10-15T04:04:51,42.805,6.029,4330,1995,199.325,60.954,13.286
2017-10-15T04:07:51,42.805,6.029,4330,1995,199.296,60.945,13.286
2017-10-15T04:10:51,42.805,6.029,4330,1995,199.286,60.942,13.286
2017-10-15T04:13:51,42.805,6.029,4330,1995,199.264,60.936,13.287
2017-10-15T04:16:51,42.805,6.029,4330,1995,199.253,60.933,13.287
2017-10-15T04:19:51,42.805,6.029,4330,1995,199.147,60.900,13.286
2017-10-15T04:22:51,42.805,6.029,4330,1995,199.211,60.919,13.286
2017-10-15T04:25:51,42.805,6.029,4330,1995,199.329,60.956,13.287
2017-10-15T04:28:51,42.805,6.029,4330,1995,199.243,60.930,13.287
2017-10-15T04:31:51,42.805,6.029,4330,1995,199.310,60.949,13.286
2017-10-15T04:34:51,42.805,6.029,4330,1995,199.350,60.963,13.287
2017-10-15T04:37:51,42.805,6.029,4330,1995,199.282,60.942,13.287
2017-10-15T04:40:51,42.805,6.029,4330,1995,199.271,60.937,13.286
2017-10-15T04:43:51,42.805,6.029,4330,1995,199.286,60.942,13.286
2017-10-15T04:46:51,42.805,6.029,4330,1995,199.218,60.922,13.287
2017-10-15T04:49:51,42.805,6.029,4330,1995,199.167,60.905,13.286
2017-10-15T04:52:51,42.805,6.029,4330,1995,199.215,60.920,13.286
2017-10-15T04:55:51,42.805,6.029,4330,1995,199.302,60.947,13.286
2017-10-15T04:58:51,42.805,6.029,4330,1995,199.133,60.895,13.286
2017-10-15T05:01:51,42.805,6.029,4330,1995,199.112,60.889,13.287
2017-10-15T05:04:51,42.805,6.029,4330,1995,199.114,60.890,13.287
2017-10-15T05:07:51,42.805,6.029,4330,1995,199.168,60.907,13.287
2017-10-15T05:10:51,42.805,6.029,4330,1995,199.059,60.874,13.287
2017-10-15T05:13:51,42.805,6.029,4330,1995,198.977,60.848,13.287
2017-10-15T05:16:51,42.805,6.029,4330,1995,199.069,60.877,13.287
2017-10-15T05:19:51,42.805,6.029,4330,1995,198.904,60.826,13.287
2017-10-15T05:22:51,42.805,6.029,4330,1995,198.983,60.851,13.287
2017-10-15T05:25:51,42.805,6.029,4330,1995,199.120,60.891,13.286
2017-10-15T05:28:51,42.805,6.029,4330,1995,199.166,60.906,13.287
2017-10-15T05:31:51,42.805,6.029,4330,1995,199.175,60.908,13.286
2017-10-15T05:34:51,42.805,6.029,4330,1995,199.267,60.936,13.286
2017-10-15T05:37:51,42.805,6.029,4330,1995,199.210,60.919,13.287
2017-10-15T05:40:51,42.805,6.029,4330,1995,199.088,60.882,13.287
2017-10-15T05:43:51,42.805,6.029,4330,1995,199.158,60.903,13.286
2017-10-15T05:46:51,42.805,6.029,4330,1995,199.197,60.915,13.287
2017-10-15T05:49:51,42.805,6.029,4330,1995,199.253,60.932,13.286
2017-10-15T05:52:51,42.805,6.029,4330,1995,199.281,60.940,13.286
2017-10-15T05:55:51,42.805,6.029,4330,1995,199.268,60.937,13.287
2017-10-15T05:58:51,42.805,6.029,4330,1995,199.144,60.899,13.287
2017-10-15T06:01:51,42.805,6.029,4330,1995,199.053,60.871,13.286
2017-10-15T06:04:51,42.805,6.029,4330,1995,198.964,60.844,13.287
2017-10-15T06:07:51,42.805,6.029,4330,1995,198.935,60.835,13.287
2017-10-15T06:10:51,42.805,6.029,4330,1995,199.002,60.856,13.287
2017-10-15T06:13:51,42.805,6.029,4330,1995,199.015,60.859,13.286
2017-10-15T06:16:51,42.805,6.029,4330,1995,198.977,60.848,13.286
2017-10-15T06:19:51,42.805,6.029,4330,1995,199.106,60.887,13.286
2017-10-15T06:22:51,42.805,6.029,4330,1995,199.060,60.873,13.286
2017-10-15T06:25:51,42.805,6.029,4330,1995,199.184,60.911,13.286
2017-10-15T06:28:51,42.805,6.029,4330,1995,199.265,60.936,13.287
2017-10-15T06:31:51,42.805,6.029,4330,1995,199.221,60.923,13.287
2017-10-15T06:34:51,42.805,6.029,4330,1995,199.132,60.895,13.286
2017-10-15T06:37:51,42.805,6.029,4330,1995,199.070,60.876,13.287
2017-10-15T06:40:51,42.805,6.029,4330,1995,199.139,60.898,13.287
2017-10-15T06:43:51,42.805,6.029,4330,1995,199.187,60.912,13.287
2017-10-15T06:46:51,42.805,6.029,4330,1995,199.057,60.873,13.287
2017-10-15T06:49:51,42.805,6.029,4330,1995,198.996,60.854,13.287
2017-10-15T06:52:51,42.805,6.029,4330,1995,198.941,60.837,13.287
2017-10-15T06:55:51,42.805,6.029,4330,1995,198.850,60.809,13.287
2017-10-15T06:58:51,42.805,6.029,4330,1995,198.910,60.827,13.286
2017-10-15T07:01:51,42.805,6.029,4330,1995,199.042,60.867,13.286
2017-10-15T07:04:51,42.805,6.029,4330,1995,199.021,60.862,13.287
2017-10-15T07:07:51,42.805,6.029,4330,1995,198.954,60.841,13.287
2017-10-15T07:10:51,42.805,6.029,4330,1995,199.074,60.878,13.287
2017-10-15T07:13:51,42.805,6.029,4330,1995,199.089,60.882,13.286
2017-10-15T07:16:51,42.805,6.029,4330,1995,199.100,60.885,13.286
2017-10-15T07:19:51,42.805,6.029,4330,1995,199.061,60.873,13.286
2017-10-15T07:22:51,42.805,6.029,4330,1995,199.006,60.857,13.287
2017-10-15T07:25:51,42.805,6.029,4330,1995,199.135,60.896,13.286
2017-10-15T07:28:51,42.805,6.029,4330,1995,199.131,60.895,13.287
2017-10-15T07:31:51,42.805,6.029,4330,1995,199.086,60.881,13.287
2017-10-15T07:34:51,42.805,6.029,4330,1995,199.001,60.855,13.286
2017-10-15T07:37:51,42.805,6.029,4330,1995,198.932,60.834,13.287
2017-10-15T07:40:51,42.805,6.029,4330,1995,198.889,60.821,13.286
2017-10-15T07:43:51,42.805,6.029,4330,1995,198.944,60.838,13.286
2017-10-15T07:46:51,42.805,6.029,4330,1995,199.010,60.859,13.287
2017-10-15T07:49:51,42.805,6.029,4330,1995,199.035,60.866,13.287
2017-10-15T07:52:51,42.805,6.029,4330,1995,198.893,60.822,13.286
2017-10-15T07:55:51,42.805,6.029,4330,1995,199.017,60.861,13.287
2017-10-15T07:58:51,42.805,6.029,4330,1995,198.996,60.854,13.287
2017-10-15T08:01:51,42.805,6.029,4330,1995,198.970,60.846,13.286
2017-10-15T08:04:51,42.805,6.029,4330,1995,198.975,60.847,13.287
2017-10-15T08:07:51,42.805,6.029,4330,1995,199.007,60.857,13.287
2017-10-15T08:10:51,42.805,6.029,4330,1995,199.000,60.855,13.287
2017-10-15T08:13:51,42.805,6.029,4330,1995,198.978,60.848,13.287
2017-10-15T08:16:51,42.805,6.029,4330,1995,199.076,60.878,13.287
2017-10-15T08:19:51,42.805,6.029,4330,1995,198.987,60.852,13.287
2017-10-15T08:22:51,42.805,6.029,4330,1995,198.866,60.816,13.288
2017-10-15T08:25:51,42.805,6.029,4330,1995,198.875,60.817,13.287
2017-10-15T08:28:51,42.805,6.029,4330,1995,198.868,60.815,13.286
2017-10-15T08:31:51,42.805,6.029,4330,1995,199.036,60.866,13.286
2017-10-15T08:34:51,42.805,6.029,4330,1995,199.060,60.873,13.286
2017-10-15T08:37:51,42.805,6.029,4330,1995,199.012,60.859,13.287
2017-10-15T08:40:51,42.805,6.029,4330,1995,198.940,60.837,13.287
2017-10-15T08:43:51,42.805,6.029,4330,1995,198.950,60.840,13.287
2017-10-15T08:46:51,42.805,6.029,4330,1995,198.923,60.831,13.287
2017-10-15T08:49:51,42.805,6.029,4330,1995,198.956,60.841,13.286
2017-10-15T08:52:51,42.805,6.029,4330,1995,198.893,60.823,13.287
2017-10-15T08:55:51,42.805,6.029,4330,1995,198.857,60.811,13.286
2017-10-15T08:58:51,42.805,6.029,4330,1995,198.892,60.822,13.286
2017-10-15T09:01:51,42.805,6.029,4330,1995,198.775,60.787,13.287
2017-10-15T09:04:51,42.805,6.029,4330,1995,198.764,60.783,13.287
2017-10-15T09:07:51,42.805,6.029,4330,1995,198.830,60.803,13.287
2017-10-15T09:10:51,42.805,6.029,4330,1995,198.767,60.784,13.287
2017-10-15T09:13:51,42.805,6.029,4330,1995,198.749,60.779,13.287
2017-10-15T09:16:51,42.805,6.029,4330,1995,198.693,60.762,13.287
2017-10-15T09:19:51,42.805,6.029,4330,1995,198.784,60.789,13.287
2017-10-15T09:22:51,42.805,6.029,4330,1995,198.744,60.777,13.287
2017-10-15T09:25:51,42.805,6.029,4330,1995,198.713,60.768,13.287
2017-10-15T09:28:51,42.805,6.029,4330,1995,198.683,60.759,13.287
2017-10-15T09:31:51,42.805,6.029,4330,1995,198.758,60.781,13.287
2017-10-15T09:34:51,42.805,6.029,4330,1995,198.758,60.781,13.287
2017-10-15T09:37:51,42.805,6.029,4330,1995,198.751,60.780,13.287
2017-10-15T09:40:51,42.805,6.029,4330,1995,198.774,60.786,13.287
2017-10-15T09:43:51,42.805,6.029,4330,1995,198.841,60.806,13.287
2017-10-15T09:46:51,42.805,6.029,4330,1995,198.880,60.818,13.286
2017-10-15T09:49:51,42.805,6.029,4330,1995,198.903,60.825,13.287
2017-10-15T09:52:51,42.805,6.029,4330,1995,198.808,60.796,13.287
2017-10-15T09:55:51,42.805,6.029,4330,1995,198.693,60.762,13.287
2017-10-15T09:58:51,42.805,6.029,4330,1995,198.607,60.735,13.287
2017-10-15T10:01:51,42.805,6.029,4330,1995,198.597,60.733,13.287
2017-10-15T10:04:51,42.805,6.029,4330,1995,198.624,60.740,13.287
2017-10-15T10:07:51,42.805,6.029,4330,1995,198.791,60.792,13.287
2017-10-15T10:10:51,42.805,6.029,4330,1995,198.691,60.760,13.286
2017-10-15T10:13:51,42.805,6.029,4330,1995,198.583,60.729,13.287
2017-10-15T10:16:51,42.805,6.029,4330,1995,198.566,60.722,13.287
2017-10-15T10:19:51,42.805,6.029,4330,1995,198.608,60.735,13.286
2017-10-15T10:22:51,42.805,6.029,4330,1995,198.690,60.761,13.287
2017-10-15T10:25:51,42.805,6.029,4330,1995,198.606,60.735,13.287
2017-10-15T10:28:51,42.805,6.029,4330,1995,198.378,60.666,13.287
2017-10-15T10:31:51,42.805,6.029,4330,1995,198.414,60.677,13.287
2017-10-15T10:34:51,42.805,6.029,4330,1995,198.428,60.680,13.287
2017-10-15T10:37:51,42.805,6.029,4330,1995,198.387,60.668,13.287
2017-10-15T10:40:51,42.805,6.029,4330,1995,198.347,60.656,13.287
2017-10-15T10:43:51,42.805,6.029,4330,1995,198.362,60.661,13.287
2017-10-15T10:46:51,42.805,6.029,4330,1995,198.341,60.655,13.288
2017-10-15T10:49:51,42.805,6.029,4330,1995,198.363,60.661,13.287
2017-10-15T10:52:51,42.805,6.029,4330,1995,198.483,60.697,13.287
2017-10-15T10:55:51,42.805,6.029,4330,1995,198.510,60.705,13.287
2017-10-15T10:58:51,42.805,6.029,4330,1995,198.401,60.673,13.287
2017-10-15T11:01:51,42.805,6.029,4330,1995,198.512,60.707,13.287
2017-10-15T11:04:51,42.805,6.029,4330,1995,198.429,60.681,13.287
2017-10-15T11:07:51,42.805,6.029,4330,1995,198.452,60.687,13.287
2017-10-15T11:10:51,42.805,6.029,4330,1995,198.477,60.696,13.287
2017-10-15T11:13:51,42.805,6.029,4330,1995,198.567,60.723,13.287
2017-10-15T11:16:51,42.805,6.029,4330,1995,198.494,60.701,13.287
2017-10-15T11:19:51,42.805,6.029,4330,1995,198.540,60.715,13.287
2017-10-15T11:22:51,42.805,6.029,4330,1995,198.381,60.666,13.287
2017-10-15T11:25:51,42.805,6.029,4330,1995,198.442,60.684,13.287
2017-10-15T11:28:51,42.805,6.029,4330,1995,198.542,60.715,13.287
2017-10-15T11:31:51,42.805,6.029,4330,1995,198.480,60.696,13.287
2017-10-15T11:34:51,42.805,6.029,4330,1995,198.431,60.681,13.286
2017-10-15T11:37:51,42.805,6.029,4330,1995,198.236,60.623,13.287
2017-10-15T11:40:51,42.805,6.029,4330,1995,198.261,60.630,13.287
2017-10-15T11:43:51,42.805,6.029,4330,1995,198.253,60.629,13.288
2017-10-15T11:46:51,42.805,6.029,4330,1995,198.205,60.612,13.287
2017-10-15T11:49:51,42.805,6.029,4330,1995,198.344,60.655,13.287
2017-10-15T11:52:51,42.805,6.029,4330,1995,198.294,60.640,13.287
2017-10-15T11:55:51,42.805,6.029,4330,1995,198.274,60.634,13.287
2017-10-15T11:58:51,42.805,6.029,4330,1995,198.469,60.694,13.287
2017-10-15T12:01:51,42.805,6.029,4330,1995,198.355,60.659,13.287
2017-10-15T12:04:51,42.805,6.029,4330,1995,198.252,60.627,13.287
2017-10-15T12:07:51,42.805,6.029,4330,1995,198.395,60.671,13.287
2017-10-15T12:10:51,42.805,6.029,4330,1995,198.374,60.664,13.287
2017-10-15T12:13:51,42.805,6.029,4330,1995,198.441,60.684,13.287
2017-10-15T12:16:50,42.805,6.029,4330,1995,198.447,60.686,13.287
2017-10-15T12:19:50,42.805,6.029,4330,1995,198.404,60.673,13.287
2017-10-15T12:22:50,42.805,6.029,4330,1995,198.429,60.681,13.287
2017-10-15T12:25:50,42.805,6.029,4330,1995,198.387,60.668,13.287
2017-10-15T12:28:50,42.805,6.029,4330,1995,198.295,60.640,13.287
2017-10-15T12:31:50,42.805,6.029,4330,1995,198.327,60.650,13.287
2017-10-15T12:34:50,42.805,6.029,4330,1995,198.413,60.676,13.287
2017-10-15T12:37:50,42.805,6.029,4330,1995,198.395,60.670,13.287
2017-10-15T12:40:50,42.805,6.029,4330,1995,198.498,60.702,13.286
2017-10-15T12:43:50,42.805,6.029,4330,1995,198.430,60.681,13.287
2017-10-15T12:46:50,42.805,6.029,4330,1995,198.438,60.684,13.287
2017-10-15T12:49:50,42.805,6.029,4330,1995,198.328,60.650,13.287
2017-10-15T12:52:50,42.805,6.029,4330,1995,198.487,60.698,13.287
2017-10-15T12:55:50,42.805,6.029,4330,1995,198.439,60.684,13.287
2017-10-15T12:58:50,42.805,6.029,4330,1995,198.408,60.674,13.287
2017-10-15T13:01:50,42.805,6.029,4330,1995,198.363,60.660,13.286
2017-10-15T13:04:50,42.805,6.029,4330,1995,198.297,60.641,13.287
2017-10-15T13:07:50,42.805,6.029,4330,1995,198.313,60.645,13.287
2017-10-15T13:10:50,42.805,6.029,4330,1995,198.515,60.707,13.287
2017-10-15T13:13:50,42.805,6.029,4330,1995,198.469,60.694,13.287
2017-10-15T13:16:50,42.805,6.029,4330,1995,198.374,60.664,13.287
2017-10-15T13:19:50,42.805,6.029,4330,1995,198.231,60.620,13.286
2017-10-15T13:22:50,42.805,6.029,4330,1995,198.561,60.721,13.287
2017-10-15T13:25:50,42.805,6.029,4330,1995,198.699,60.763,13.287
2017-10-15T13:28:50,42.805,6.029,4330,1995,198.645,60.746,13.286
2017-10-15T13:31:50,42.805,6.029,4330,1995,198.572,60.724,13.287
2017-10-15T13:34:50,42.805,6.029,4330,1995,198.551,60.718,13.287
2017-10-15T13:37:50,42.805,6.029,4330,1995,198.450,60.688,13.287
2017-10-15T13:40:50,42.805,6.029,4330,1995,198.496,60.702,13.287
2017-10-15T13:43:50,42.805,6.029,4330,1995,198.489,60.699,13.286
2017-10-15T13:46:50,42.805,6.029,4330,1995,198.583,60.727,13.286
2017-10-15T13:49:50,42.805,6.029,4330,1995,198.601,60.734,13.287
2017-10-15T13:52:50,42.805,6.029,4330,1995,198.609,60.736,13.287
2017-10-15T13:55:50,42.805,6.029,4330,1995,198.682,60.759,13.287
2017-10-15T13:58:50,42.805,6.029,4330,1995,198.581,60.727,13.287
2017-10-15T14:01:50,42.805,6.029,4330,1995,198.415,60.676,13.287
2017-10-15T14:04:50,42.805,6.029,4330,1995,198.534,60.713,13.287
2017-10-15T14:07:50,42.805,6.029,4330,1995,198.433,60.682,13.287
2017-10-15T14:10:50,42.805,6.029,4330,1995,198.426,60.679,13.286
2017-10-15T14:13:50,42.805,6.029,4330,1995,198.376,60.664,13.287
2017-10-15T14:16:50,42.805,6.029,4330,1995,198.530,60.711,13.286
2017-10-15T14:19:50,42.805,6.029,4330,1995,198.540,60.715,13.287
2017-10-15T14:22:50,42.805,6.029,4330,1995,198.412,60.676,13.287
2017-10-15T14:25:50,42.805,6.029,4330,1995,198.560,60.721,13.287
2017-10-15T14:28:50,42.805,6.029,4330,1995,198.639,60.745,13.287
2017-10-15T14:31:50,42.805,6.029,4330,1995,198.629,60.742,13.287
2017-10-15T14:34:50,42.805,6.029,4330,1995,198.715,60.768,13.287
2017-10-15T14:37:50,42.805,6.029,4330,1995,198.609,60.735,13.286
2017-10-15T14:40:50,42.805,6.029,4330,1995,198.828,60.802,13.287
2017-10-15T14:43:50,42.805,6.029,4330,1995,198.708,60.766,13.287
2017-10-15T14:46:50,42.805,6.029,4330,1995,198.611,60.737,13.287
2017-10-15T14:49:50,42.805,6.029,4330,1995,198.543,60.716,13.287
2017-10-15T14:52:50,42.805,6.029,4330,1995,198.547,60.717,13.287
2017-10-15T14:55:50,42.805,6.029,4330,1995,198.718,60.769,13.286
2017-10-15T14:58:50,42.805,6.029,4330,1995,198.561,60.722,13.287
2017-10-15T15:01:50,42.805,6.029,4330,1995,198.648,60.748,13.287
2017-10-15T15:04:50,42.805,6.029,4330,1995,198.642,60.745,13.286
2017-10-15T15:07:50,42.805,6.029,4330,1995,198.789,60.790,13.286
2017-10-15T15:10:50,42.805,6.029,4330,1995,198.580,60.726,13.286
2017-10-15T15:13:50,42.805,6.029,4330,1995,198.685,60.758,13.286
2017-10-15T15:16:50,42.805,6.029,4330,1995,198.776,60.786,13.287
2017-10-15T15:19:50,42.805,6.029,4330,1995,198.648,60.749,13.287
2017-10-15T15:22:50,42.805,6.029,4330,1995,198.587,60.729,13.287
2017-10-15T15:25:50,42.805,6.029,4330,1995,198.670,60.754,13.287
2017-10-15T15:28:50,42.805,6.029,4330,1995,198.709,60.766,13.286
2017-10-15T15:31:50,42.805,6.029,4330,1995,198.730,60.773,13.287
2017-10-15T15:34:50,42.805,6.029,4330,1995,198.770,60.785,13.287
2017-10-15T15:37:50,42.805,6.029,4330,1995,198.920,60.830,13.286
2017-10-15T15:40:50,42.805,6.029,4330,1995,198.907,60.826,13.286
2017-10-15T15:43:50,42.805,6.029,4330,1995,198.952,60.840,13.286
2017-10-15T15:46:50,42.805,6.029,4330,1995,198.958,60.842,13.286
2017-10-15T15:49:50,42.805,6.029,4330,1995,198.903,60.826,13.287
2017-10-15T15:52:50,42.805,6.029,4330,1995,198.964,60.845,13.287
2017-10-15T15:55:50,42.805,6.029,4330,1995,198.924,60.832,13.287
2017-10-15T15:58:50,42.805,6.029,4330,1995,198.830,60.803,13.287
2017-10-15T16:01:50,42.805,6.029,4330,1995,198.908,60.827,13.287
2017-10-15T16:04:50,42.805,6.029,4330,1995,198.894,60.823,13.287
2017-10-15T16:07:50,42.805,6.029,4330,1995,198.896,60.823,13.286
2017-10-15T16:10:50,42.805,6.029,4330,1995,198.740,60.776,13.287
2017-10-15T16:13:50,42.805,6.029,4330,1995,198.699,60.763,13.287
2017-10-15T16:16:50,42.805,6.029,4330,1995,198.724,60.771,13.286
2017-10-15T16:19:50,42.805,6.029,4330,1995,198.676,60.756,13.287
2017-10-15T16:22:50,42.805,6.029,4330,1995,198.727,60.772,13.287
2017-10-15T16:25:50,42.805,6.029,4330,1995,198.707,60.766,13.287
2017-10-15T16:28:50,42.805,6.029,4330,1995,198.673,60.755,13.287
2017-10-15T16:31:50,42.805,6.029,4330,1995,198.695,60.762,13.287
2017-10-15T16:34:50,42.805,6.029,4330,1995,198.741,60.776,13.287
2017-10-15T16:37:50,42.805,6.029,4330,1995,198.611,60.736,13.287
2017-10-15T16:40:50,42.805,6.029,4330,1995,198.696,60.762,13.286
2017-10-15T16:43:50,42.805,6.029,4330,1995,198.803,60.795,13.287
2017-10-15T16:46:50,42.805,6.029,4330,1995,198.775,60.786,13.286
2017-10-15T16:49:50,42.805,6.029,4330,1995,198.699,60.764,13.287
2017-10-15T16:52:50,42.805,6.029,4330,1995,198.760,60.781,13.286
2017-10-15T16:55:50,42.805,6.029,4330,1995,198.827,60.802,13.286
2017-10-15T16:58:50,42.805,6.029,4330,1995,198.821,60.800,13.286
2017-10-15T17:01:50,42.805,6.029,4330,1995,198.774,60.786,13.287
2017-10-15T17:04:50,42.805,6.029,4330,1995,198.676,60.756,13.287
2017-10-15T17:07:50,42.805,6.029,4330,1995,198.694,60.762,13.287
2017-10-15T17:10:50,42.805,6.029,4330,1995,198.666,60.753,13.287
2017-10-15T17:13:50,42.805,6.029,4330,1995,198.658,60.750,13.287
2017-10-15T17:16:50,42.805,6.029,4330,1995,198.618,60.738,13.286
2017-10-15T17:19:50,42.805,6.029,4330,1995,198.853,60.810,13.287
2017-10-15T17:22:50,42.805,6.029,4330,1995,198.778,60.787,13.286
2017-10-15T17:25:50,42.805,6.029,4330,1995,198.727,60.771,13.286
2017-10-15T17:28:50,42.805,6.029,4330,1995,198.820,60.800,13.287
2017-10-15T17:31:50,42.805,6.029,4330,1995,198.772,60.785,13.286
2017-10-15T17:34:50,42.805,6.029,4330,1995,198.773,60.786,13.287
2017-10-15T17:37:50,42.805,6.029,4330,1995,198.714,60.768,13.287
2017-10-15T17:40:50,42.805,6.029,4330,1995,198.599,60.733,13.287
2017-10-15T17:43:50,42.805,6.029,4330,1995,198.637,60.744,13.287
2017-10-15T17:46:50,42.805,6.029,4330,1995,198.692,60.761,13.287
2017-10-15T17:49:50,42.805,6.029,4330,1995,198.649,60.747,13.286
2017-10-15T17:52:50,42.805,6.029,4330,1995,198.544,60.716,13.287
2017-10-15T17:55:50,42.805,6.029,4330,1995,198.518,60.707,13.286
2017-10-15T17:58:50,42.805,6.029,4330,1995,198.619,60.738,13.286
2017-10-15T18:01:50,42.805,6.029,4330,1995,198.643,60.746,13.287
2017-10-15T18:04:50,42.805,6.029,4330,1995,198.566,60.723,13.287
2017-10-15T18:07:50,42.805,6.029,4330,1995,198.617,60.738,13.287